When you browse on this site, cookies collect data to enhance your experience and personalize the content and advertising you see.
Visit our Privacy Policy to learn more. By continuing to use the site, you agree to this use of cookies and data.
  • In Germany
  • List of Countries
  • For 7 days
  • Water Temperature
  • Satellite Maps
  • Weather Map
  • Weather Widgets
  • user-avatar
    Login

    Hourly Weather Artashat

    Today, 17 December, Monday

    Time Temperature Precipitation Wind Pressure Humidity
    00:00 -3°C° 0 mm 2 mps 602 mmHg 57%
    01:00 -3°C° 0 mm 2 mps 602 mmHg 56%
    02:00 -3°C° 0 mm 2 mps 602 mmHg 55%
    03:00 -3°C° 0 mm 2 mps 601 mmHg 58%
    04:00 -4°C° 0 mm 2 mps 601 mmHg 57%
    05:00 -2°C° 0 mm 1 mps 601 mmHg 56%
    06:00 -2°C° 0 mm 1 mps 601 mmHg 55%
    07:00 -1°C° 0 mm 1 mps 601 mmHg 52%
    08:00 0°C° 0 mm 1 mps 601 mmHg 49%
    09:00 +1°C° 0 mm 1 mps 602 mmHg 46%
    10:00 +2°C° 0 mm 1 mps 602 mmHg 46%
    11:00 +3°C° 0 mm 1 mps 601 mmHg 45%
    12:00 +4°C° 0 mm 1 mps 601 mmHg 44%
    13:00 +3°C° 0 mm 1 mps 601 mmHg 46%
    14:00 +3°C° 0 mm 1 mps 601 mmHg 49%
    15:00 +3°C° 0 mm 1 mps 600 mmHg 52%
    16:00 +2°C° 0.2 mm 1 mps 600 mmHg 58%
    17:00 +1°C° 0.2 mm 1 mps 600 mmHg 64%
    18:00 0°C° 0.2 mm 1 mps 600 mmHg 69%
    19:00 0°C° 0.3 mm 1 mps 600 mmHg 72%
    20:00 0°C° 0.3 mm 1 mps 600 mmHg 74%
    21:00 0°C° 0.3 mm 1 mps 599 mmHg 77%
    22:00 -1°C° 0.2 mm 1 mps 599 mmHg 77%
    23:00 -1°C° 0.2 mm 1 mps 599 mmHg 78%

    Tomorrow, 18 December, Tuesday

    Time Temperature Precipitation Wind Pressure Humidity
    00:00 -2°C° 0.2 mm 0 mps 599 mmHg 79%
    01:00 -1°C° 0.1 mm 1 mps 599 mmHg 80%
    02:00 -2°C° 0.1 mm 1 mps 599 mmHg 80%
    03:00 -2°C° 0.1 mm 1 mps 599 mmHg 81%
    04:00 -2°C° 0.1 mm 1 mps 599 mmHg 81%
    05:00 -2°C° 0.1 mm 1 mps 599 mmHg 81%
    06:00 -2°C° 0.1 mm 1 mps 599 mmHg 81%
    07:00 -1°C° 0.1 mm 1 mps 599 mmHg 79%
    08:00 -1°C° 0.1 mm 1 mps 600 mmHg 77%
    09:00 0°C° 0.1 mm 1 mps 600 mmHg 75%
    10:00 0°C° 0 mm 1 mps 601 mmHg 72%
    11:00 -1°C° 0 mm 2 mps 601 mmHg 70%
    12:00 +1°C° 0 mm 2 mps 601 mmHg 67%
    13:00 +1°C° 0 mm 2 mps 601 mmHg 67%
    14:00 +1°C° 0 mm 2 mps 601 mmHg 67%
    15:00 +1°C° 0 mm 2 mps 601 mmHg 66%
    16:00 -1°C° 0 mm 2 mps 601 mmHg 70%
    17:00 -2°C° 0 mm 2 mps 601 mmHg 74%
    18:00 -1°C° 0 mm 1 mps 601 mmHg 77%
    19:00 -1°C° 0 mm 1 mps 601 mmHg 77%
    20:00 -1°C° 0 mm 1 mps 601 mmHg 77%
    21:00 -2°C° 0 mm 1 mps 601 mmHg 78%
    22:00 -2°C° 0 mm 1 mps 602 mmHg 78%
    23:00 -2°C° 0 mm 1 mps 602 mmHg 78%

    Day after tomorrow, 19 December, Wednesday

    Time Temperature Precipitation Wind Pressure Humidity
    00:00 -2°C° 0 mm 1 mps 602 mmHg 78%
    01:00 -2°C° 0 mm 1 mps 602 mmHg 78%
    02:00 -2°C° 0 mm 1 mps 602 mmHg 78%
    03:00 -2°C° 0 mm 1 mps 602 mmHg 78%
    04:00 -2°C° 0 mm 1 mps 602 mmHg 78%
    05:00 -2°C° 0 mm 1 mps 602 mmHg 78%
    06:00 -3°C° 0 mm 1 mps 602 mmHg 77%
    07:00 -2°C° 0 mm 1 mps 602 mmHg 75%
    08:00 -1°C° 0 mm 1 mps 603 mmHg 72%
    09:00 -1°C° 0 mm 1 mps 603 mmHg 69%
    10:00 -2°C° 0 mm 2 mps 603 mmHg 66%
    11:00 -1°C° 0 mm 2 mps 603 mmHg 64%
    12:00 +1°C° 0 mm 2 mps 603 mmHg 62%
    13:00 +1°C° 0 mm 2 mps 603 mmHg 62%
    14:00 +1°C° 0 mm 2 mps 602 mmHg 63%
    15:00 +2°C° 0 mm 2 mps 602 mmHg 63%
    16:00 -1°C° 0 mm 2 mps 602 mmHg 67%
    17:00 -2°C° 0 mm 2 mps 601 mmHg 71%
    18:00 -1°C° 0 mm 1 mps 601 mmHg 76%
    19:00 -1°C° 0 mm 1 mps 601 mmHg 75%
    20:00 -1°C° 0 mm 1 mps 601 mmHg 75%
    21:00 -1°C° 0 mm 1 mps 601 mmHg 74%
    22:00 -2°C° 0 mm 1 mps 601 mmHg 74%
    23:00 -2°C° 0 mm 1 mps 601 mmHg 74%

    20 December, Thursday

    Time Temperature Precipitation Wind Pressure Humidity
    00:00 -2°C° 0 mm 1 mps 601 mmHg 73%
    01:00 -2°C° 0 mm 1 mps 600 mmHg 74%
    02:00 -2°C° 0 mm 1 mps 600 mmHg 74%
    03:00 -2°C° 0 mm 1 mps 600 mmHg 75%
    04:00 -2°C° 0 mm 1 mps 600 mmHg 75%
    05:00 -2°C° 0 mm 1 mps 599 mmHg 76%
    06:00 -2°C° 0 mm 1 mps 599 mmHg 77%
    07:00 -1°C° 0 mm 1 mps 600 mmHg 75%
    08:00 -1°C° 0 mm 1 mps 600 mmHg 73%
    09:00 0°C° 0 mm 1 mps 600 mmHg 71%
    10:00 +1°C° 0 mm 1 mps 600 mmHg 70%
    11:00 +1°C° 0 mm 1 mps 600 mmHg 68%
    12:00 +2°C° 0 mm 1 mps 600 mmHg 67%
    13:00 +2°C° 0 mm 1 mps 600 mmHg 67%
    14:00 +2°C° 0 mm 1 mps 599 mmHg 68%
    15:00 +2°C° 0 mm 1 mps 599 mmHg 69%
    16:00 0°C° 0 mm 0 mps 599 mmHg 73%
    17:00 -1°C° 0 mm 0 mps 599 mmHg 77%
    18:00 -2°C° 0 mm 0 mps 599 mmHg 81%
    19:00 -2°C° 0 mm 0 mps 599 mmHg 81%
    20:00 -3°C° 0 mm 0 mps 599 mmHg 81%
    21:00 -3°C° 0 mm 0 mps 599 mmHg 81%
    22:00 -3°C° 0 mm 0 mps 599 mmHg 81%
    23:00 -3°C° 0 mm 0 mps 599 mmHg 80%

    21 December, Friday

    Time Temperature Precipitation Wind Pressure Humidity
    00:00 -4°C° 0 mm 0 mps 599 mmHg 80%
    01:00 -4°C° 0 mm 0 mps 599 mmHg 80%
    02:00 -3°C° 0 mm 1 mps 599 mmHg 80%
    03:00 -3°C° 0 mm 1 mps 599 mmHg 80%
    04:00 -3°C° 0 mm 1 mps 599 mmHg 80%
    05:00 -3°C° 0 mm 1 mps 599 mmHg 80%
    06:00 -3°C° 0 mm 1 mps 599 mmHg 80%
    07:00 -2°C° 0 mm 1 mps 600 mmHg 77%
    08:00 -2°C° 0 mm 1 mps 600 mmHg 73%
    09:00 -2°C° 0 mm 0 mps 601 mmHg 70%
    10:00 0°C° 0 mm 1 mps 601 mmHg 68%
    11:00 +1°C° 0 mm 1 mps 601 mmHg 65%
    12:00 +1°C° 0 mm 1 mps 601 mmHg 63%
    13:00 +1°C° 0 mm 1 mps 601 mmHg 63%
    14:00 +1°C° 0 mm 1 mps 601 mmHg 63%
    15:00 +1°C° 0 mm 1 mps 601 mmHg 62%
    16:00 0°C° 0 mm 1 mps 600 mmHg 67%
    17:00 -1°C° 0 mm 1 mps 600 mmHg 71%
    18:00 -3°C° 0 mm 0 mps 600 mmHg 76%
    19:00 -3°C° 0 mm 0 mps 600 mmHg 76%
    20:00 -3°C° 0 mm 1 mps 600 mmHg 76%
    21:00 -3°C° 0 mm 1 mps 600 mmHg 75%
    22:00 -3°C° 0 mm 1 mps 600 mmHg 75%
    23:00 -3°C° 0 mm 1 mps 600 mmHg 75%

    22 December, Saturday

    Time Temperature Precipitation Wind Pressure Humidity
    00:00 -4°C° 0 mm 1 mps 600 mmHg 75%
    01:00 -4°C° 0 mm 1 mps 600 mmHg 75%
    02:00 -4°C° 0 mm 1 mps 600 mmHg 75%
    03:00 -4°C° 0 mm 1 mps 599 mmHg 75%
    04:00 -4°C° 0 mm 1 mps 599 mmHg 75%
    05:00 -6°C° 0 mm 1 mps 599 mmHg 76%
    06:00 -6°C° 0 mm 1 mps 599 mmHg 76%
    07:00 -4°C° 0 mm 1 mps 599 mmHg 72%
    08:00 -3°C° 0 mm 1 mps 600 mmHg 69%
    09:00 -2°C° 0 mm 1 mps 600 mmHg 65%
    10:00 -2°C° 0 mm 1 mps 600 mmHg 64%
    11:00 -1°C° 0 mm 1 mps 599 mmHg 63%
    12:00 0°C° 0 mm 1 mps 599 mmHg 61%
    13:00 0°C° 0.1 mm 1 mps 599 mmHg 63%
    14:00 0°C° 0.1 mm 1 mps 598 mmHg 64%
    15:00 0°C° 0.1 mm 1 mps 598 mmHg 66%
    16:00 -1°C° 0.2 mm 1 mps 598 mmHg 69%
    17:00 -1°C° 0.2 mm 1 mps 598 mmHg 73%
    18:00 -2°C° 0.2 mm 1 mps 598 mmHg 76%
    19:00 -2°C° 0.1 mm 1 mps 598 mmHg 77%
    20:00 -2°C° 0.1 mm 1 mps 598 mmHg 78%
    21:00 -3°C° 0.1 mm 1 mps 598 mmHg 78%
    22:00 -3°C° 0 mm 1 mps 598 mmHg 79%
    23:00 -3°C° 0 mm 1 mps 598 mmHg 79%
    Show more